Location: Bannatyne
(13.0833°N, 59.5333°W)
Time: 08:54:15
(UTC+00:00)

Vanguard 1 Rocket - Visible Passes

Search period start: 25 January 2020 00:00
Search period end: 04 February 2020 00:00
Orbit: 650 x 4226 km, 34.3° (Epoch: 24 January)

Date Brightness Start Highest point End Pass type
(mag) Time Alt. Az. Time Alt. Az. Time Alt. Az.
25 Jan 9.3 09:38:14 10° SSW 09:41:48 23° SE 09:46:02 10° E visible
25 Jan 11.5 21:52:41 10° WNW 22:16:10 51° SW 22:38:20 10° SSE visible
26 Jan 11.7 00:37:33 10° WSW 00:49:06 15° SW 00:58:59 10° SSW visible
26 Jan 11.6 23:14:14 10° W 23:33:56 27° SW 23:50:57 10° S visible
27 Jan 8.2 09:40:37 10° SSW 09:44:43 40° SE 09:49:46 10° ENE visible
27 Jan 11.7 21:56:23 10° WNW 22:18:37 42° SW 22:40:12 10° SSE visible
28 Jan 11.8 00:49:39 10° SW 00:52:45 10° SW 00:55:43 10° SSW visible
28 Jan 9.4 08:31:32 10° S 08:34:00 14° SE 08:36:29 10° ESE visible
28 Jan 11.8 23:19:59 10° W 23:36:57 21° SW 23:52:04 10° S visible
29 Jan 7.0 09:43:25 10° SW 09:47:45 73° SE 09:53:04 10° ENE visible
29 Jan 11.8 22:00:35 10° W 22:21:18 34° SW 22:41:50 10° SSE visible
30 Jan 8.6 08:34:27 16° S 08:37:05 26° SE 08:40:54 10° E visible
30 Jan 11.9 23:27:14 10° WSW 23:40:26 16° SW 23:52:31 10° S visible
31 Jan 6.8 09:46:35 10° WSW 09:50:54 64° NNW 09:56:04 10° NE visible
31 Jan 11.9 22:05:27 10° W 22:24:17 27° SW 22:43:11 10° SSE visible
01 Feb 7.4 08:39:00 38° S 08:40:12 48° SE 08:44:32 10° ENE visible
01 Feb 11.9 23:37:25 10° SW 23:44:29 12° SSW 23:51:12 10° SSW visible
02 Feb 9.8 07:32:28 10° E 07:32:28 10° E 07:32:33 10° E visible
02 Feb 7.4 09:50:05 10° W 09:54:09 37° NNW 09:58:52 10° NE visible
02 Feb 12.0 22:11:17 10° WSW 22:27:40 21° SW 22:44:12 10° S visible
03 Feb 6.5 08:43:12 85° SW 08:43:19 89° SE 08:47:47 10° ENE visible
